Location: Powder Track
(41.8531°N, 72.3584°W)
Time: 23:38:43
(UTC+00:00)

Vanguard 2 Rocket - Pass Details

Date: 07 August 2021
Orbit: 555 x 3324 km, 32.9° (Epoch: 18 September)

Event Time Altitude Azimuth Distance (km) Brightness Sun altitude
Rises 10:37:54 0° 240° (WSW) 3,848 9.5 7.7°
Reaches altitude 10° 10:41:30 10° 228° (SW) 2,508 8.7 8.3°
Maximum altitude 10:45:55 24° 175° (S) 1,381 7.9 9.1°
Drops below altitude 10° 10:49:22 10° 119° (ESE) 1,910 9.4 9.7°
Sets 10:51:42 0° 104° (ESE) 2,735 10.6 10.1°
